Home > Time Zones > World Clock > Weather > Spain > Ceuta > Past weeks

Flag for Spain Weather past 2 weeks in Ceuta, Ceuta, Spain

Now
63 °F

Passing clouds.


Feels Like: 63 °F
Forecast: 62 / 67 °F
Wind: 21 mph from West

Location: Gibraltar Airport

Current Time: Apr 27, 2015 at 1:43:40 AM

Latest Report: Apr 27, 2015 at 12:50 AM


Visibility: N/A

Pressure: 30.01 "Hg

Humidity: 68%

Dew point: 52 °F

Location of CeutaLocation

Historic Weather in Ceuta — Graph

°F

Ceuta temperature yesterday

Maximum temperature yesterday: 66 °F (at 11:50 AM)
Minimum temperature yesterday: 63 °F (at 12:50 AM)
Average temperature yesterday: 64 °F

Past Weeks' High & Low Weather Summary

 TemperatureHumidityPressure
High73 °F (Apr 18, 2:50 PM)100% (Apr 24, 9:50 AM)30.24 "Hg (Apr 24, 9:50 AM)
Low57 °F (Apr 15, 3:50 AM)38% (Apr 17, 5:50 PM)29.89 "Hg (Apr 26, 2:50 PM)
Average63 °F76%30.06 "Hg
* Reported Apr 11 11:50 PM — Apr 26 11:50 PM, Ceuta, Weather by CustomWeather, © 2015

Note: Actual official high and low records may vary slightly from our data, if they occured in-between our weather recording intervals... More about our weather records

Advertising

Ceuta weather history for previous 24 hours

 ConditionsComfort  
Time TempWeatherWind HumidityBarometerVisibility
11:50 PM
Sun, Apr 26
63 °FClear.23 mph68%30.01 "HgN/A
10:50 PM63 °FPassing clouds.21 mph68%29.98 "HgN/A
9:50 PM63 °FPassing clouds.18 mph68%29.98 "HgN/A
8:50 PM64 °FPassing clouds.18 mph64%29.95 "HgN/A
7:50 PM64 °FPassing clouds.17 mph64%29.95 "HgN/A
6:50 PM66 °FPassing clouds.17 mph64%29.92 "HgN/A
5:50 PM64 °FScattered clouds.16 mph73%29.92 "HgN/A
4:50 PM63 °FBroken clouds.12 mph88%29.89 "Hg6 mi
3:50 PM63 °FSleet. Broken clouds.21 mph94%29.89 "Hg4 mi
2:50 PM64 °FSprinkles. Broken clouds.20 mph83%29.89 "Hg4 mi
1:50 PM66 °FBroken clouds.15 mph68%29.92 "HgN/A
12:50 PM66 °FScattered clouds.12 mph73%29.95 "HgN/A
11:50 AM66 °FScattered clouds.16 mph73%29.95 "HgN/A
10:50 AM64 °FScattered clouds.17 mph73%29.92 "HgN/A
9:50 AM64 °FBroken clouds.13 mph78%29.95 "HgN/A
8:50 AM63 °FPartly sunny.14 mph83%29.92 "HgN/A
7:50 AM63 °FPartly cloudy.12 mph83%29.92 "HgN/A
6:50 AM63 °FPartly cloudy.8 mph83%29.92 "HgN/A
5:50 AM63 °FPassing clouds.8 mph83%29.92 "HgN/A
4:50 AM63 °FPassing clouds.12 mph83%29.95 "HgN/A
3:50 AM63 °FOvercast.13 mph83%29.98 "HgN/A
2:50 AM63 °FOvercast.10 mph83%29.98 "HgN/A
1:50 AM63 °FPassing clouds.6 mph83%30.01 "HgN/A
Weather by CustomWeather, © 2015

See weather overviewHow to use our weather pages